Volver al catálogo

YAM-10

ActivoRadioaficionadoSSO
NORAD 64580·PAYLOAD·🇺🇸 United States

Lanzado Jun 23, 2025 desde Vandenberg Space Force Base

Loading…

Próximos Pases (próximas 24 horas)

TLE

ActualizadoSource: Space-Track

Época: Sep 14, 2026, 17:57 UTC

1 64580U 25135BE  26257.74805852  .00001360  00000-0  13943-3 0  9993
2 64580  97.7802  10.4044 0004385  67.8671 292.3013 14.92070050 67210

Sigue YAM-10 en tiempo real con AllMySat

Download on the App Store